Wind_Speed
22 22 22 21 20 20 18 17 16 14 13 12 11 11 11 11 10 10 9 10 12 11 9 9 9 9 8 9 10 9 9 10 6 6 8 8 7 9 13 14 16 19 24
22 23 22 22 20 19 17 15 13 12 11 12 12 12 11 11 10 10 11 11 12 11 10 9 4 7 9 8 9 12 11 10 13 13 12 8 11 13 15 20 20 24 30
24 23 22 21 19 17 16 14 13 14 13 12 11 11 10 10 10 11 10 9 9 9 10 9 6 5 8 9 12 11 11 11 16 16 11 13 17 20 23 23 25 30 35
23 22 21 19 17 16 15 15 15 14 13 12 11 11 9 8 7 7 7 6 7 10 7 8 10 9 9 12 11 10 15 18 16 17 17 16 15 20 28 30 28 30 32
20 19 19 18 17 16 16 16 15 14 13 13 11 9 7 5 4 5 5 6 9 10 9 9 10 10 10 14 13 14 19 17 18 19 16 15 17 17 22 25 31 32 30
18 18 18 17 16 15 15 16 15 14 13 12 10 7 5 3 4 5 4 5 9 11 10 9 8 9 11 16 16 18 21 22 22 18 16 18 16 21 28 31 36 29 9
18 19 17 15 13 14 15 16 15 14 12 11 8 5 4 3 3 4 4 3 8 9 9 8 6 8 10 14 14 21 21 22 24 26 24 20 22 28 33 30 27 24 19
18 18 15 13 12 14 16 16 15 12 11 10 7 5 4 2 3 5 5 5 7 9 9 10 9 9 13 17 17 18 18 17 18 17 23 22 24 27 30 30 24 25 26
19 16 14 13 14 15 15 16 13 13 12 9 7 6 6 5 6 9 5 5 7 9 8 11 12 11 14 20 18 20 19 16 16 19 20 21 24 27 33 29 27 28 20
18 16 14 13 14 15 16 15 12 12 11 9 8 8 8 7 8 8 5 5 5 6 8 10 12 14 17 21 19 21 18 21 21 22 21 22 28 28 29 26 29 25 21
18 16 14 13 13 14 15 13 13 13 11 10 11 8 7 7 8 7 6 3 6 6 7 11 15 16 20 22 17 16 19 22 21 21 26 26 26 27 22 26 21 27 21
18 17 15 14 13 14 15 13 14 13 12 12 13 9 6 6 8 7 5 6 7 7 7 10 14 19 22 21 16 19 25 22 19 21 21 27 23 21 24 27 30 9 5
18 17 16 14 13 14 14 12 12 11 11 12 13 12 7 6 6 7 7 6 7 8 12 13 16 18 21 20 19 22 25 18 19 19 20 21 19 21 20 24 20 9 3
18 17 16 16 15 13 11 11 10 11 12 11 11 13 10 8 8 8 7 7 8 15 17 17 17 16 18 19 21 24 16 16 18 18 17 18 18 19 19 18 14 13 9
19 17 16 15 13 13 10 6 5 7 8 11 11 11 12 10 9 10 9 9 11 20 21 17 13 14 18 23 17 18 16 19 20 17 19 20 20 20 16 15 12 11 10
19 17 16 16 14 13 12 10 7 9 9 9 8 6 7 12 13 10 10 12 17 22 16 13 14 16 15 16 17 18 17 19 18 18 19 21 20 20 17 15 14 15 15
18 17 15 14 13 12 12 12 12 8 8 8 10 9 10 12 15 12 13 15 24 20 12 13 15 15 14 15 15 17 18 17 19 20 21 21 21 20 17 16 16 16 17
18 16 16 14 13 12 12 12 11 13 13 10 11 10 9 15 15 15 17 21 19 13 15 14 15 16 15 15 16 18 20 20 19 19 19 20 20 19 19 18 18 17 17
20 19 16 14 13 11 11 11 14 10 11 13 11 12 13 17 16 17 18 13 12 13 15 12 12 14 15 14 15 17 19 19 18 19 18 19 19 21 20 19 18 18 17
20 17 12 14 14 12 11 10 9 13 10 12 13 12 16 20 19 20 14 11 13 14 13 13 13 12 16 15 15 14 15 17 18 18 18 19 21 21 20 19 18 18 20
20 17 12 14 15 13 11 10 10 9 8 12 11 14 21 19 17 17 14 12 12 15 16 15 15 15 14 15 15 14 14 15 16 17 18 19 20 20 21 20 19 20 20
18 18 16 13 13 12 12 10 11 10 9 10 15 14 21 12 15 16 15 12 11 10 11 12 15 16 16 18 19 19 19 18 18 20 19 19 21 22 22 22 22 22 22
15 15 16 13 13 11 10 11 10 10 10 10 14 15 18 10 12 12 13 13 13 11 11 12 12 12 12 14 15 18 19 20 21 20 21 21 22 22 24 24 24 25 26
13 14 13 11 9 12 11 10 10 6 10 11 11 12 13 10 7 8 9 9 9 9 10 11 11 12 12 13 14 15 16 16 17 19 21 21 23 24 26 26 27 27 27
12 10 9 8 8 6 7 8 7 12 9 8 10 8 10 7 6 4 4 4 5 6 7 7 8 8 10 12 12 13 14 16 17 16 16 20 22 23 24 25 26 27 27
20 20 19 17 14 11 10 13 13 10 10 9 9 8 8 8 9 7 5 3 1 3 3 4 3 4 4 5 8 13 17 17 16 20 22 23 23 24 25 26 28 29 30
Wind_Direction
143 140 137 134 135 137 141 143 145 148 154 164 173 179 180 181 186 194 201 198 209 203 196 204 228 216 205 195 194 187 177 177 142 116 118 131 122 144 153 159 154 163 172
140 138 135 135 137 139 142 144 147 150 156 160 165 170 176 180 191 200 211 214 213 197 191 199 204 216 206 189 188 194 181 168 162 133 126 116 125 139 144 144 152 160 165
139 137 136 138 140 141 143 145 148 147 150 155 164 171 180 189 196 211 221 221 211 190 184 190 218 229 201 185 178 191 182 156 140 142 122 124 113 130 128 131 140 143 151
141 140 138 140 141 142 144 146 149 151 151 159 166 168 172 186 201 216 211 200 172 169 207 219 217 226 216 186 185 193 165 148 145 138 127 121 118 117 121 114 104 117 120
140 139 138 139 141 144 147 152 152 152 157 160 163 165 167 179 198 221 202 177 174 177 202 213 219 229 223 192 172 161 153 149 145 139 125 130 130 125 122 122 113 113 113
142 139 141 144 147 150 154 154 154 155 160 160 160 159 154 166 189 200 218 186 168 178 194 204 217 224 210 193 192 169 166 160 154 145 142 145 139 127 133 134 131 131 116
146 144 146 148 152 158 160 156 160 165 165 159 151 143 147 156 206 198 189 183 162 178 185 186 194 199 186 184 182 170 166 168 167 163 152 154 148 150 146 144 145 142 133
148 148 151 155 154 159 161 163 163 160 162 156 144 135 141 110 175 165 149 145 156 151 167 172 169 158 175 169 166 156 155 162 162 163 157 157 160 155 153 145 137 127 142
152 151 153 154 157 159 166 168 162 159 158 149 134 137 116 110 134 136 138 136 129 130 151 170 167 159 165 165 163 150 154 149 158 161 156 158 167 154 152 147 138 138 140
154 151 153 158 161 167 162 161 163 161 155 145 131 107 113 126 141 138 126 123 115 115 145 171 172 165 156 159 154 149 139 147 147 143 147 152 156 158 157 157 155 150 144
153 147 151 158 163 164 161 160 161 162 155 143 127 114 118 133 142 141 143 158 137 134 132 154 172 171 167 167 154 154 147 145 140 132 138 146 154 154 157 159 161 150 164
153 150 153 158 157 156 154 158 166 165 158 149 137 126 118 140 142 144 142 129 127 138 135 159 168 173 173 168 157 158 158 147 143 143 142 147 151 161 166 170 163 162 82
156 153 156 158 152 149 154 159 165 173 171 166 161 140 136 146 137 141 140 129 130 123 134 139 147 160 166 169 173 164 159 150 150 150 154 159 163 162 165 169 167 171 139
156 158 161 157 152 151 153 162 175 179 180 182 170 153 147 152 153 145 141 136 132 135 131 129 135 151 165 171 168 161 157 158 155 151 154 155 155 160 162 169 179 190 190
156 160 160 154 159 152 144 140 169 156 184 177 166 160 158 167 168 159 155 149 145 148 138 130 124 126 130 140 143 149 151 153 150 151 150 153 154 167 170 180 189 186 191
159 164 167 159 160 151 151 136 103 132 145 158 152 156 136 154 170 162 157 161 154 153 137 130 126 128 135 134 136 142 149 155 153 151 159 163 168 172 178 186 193 197 203
170 162 154 159 158 157 160 153 146 143 148 145 151 137 144 165 154 149 147 151 153 154 142 138 140 145 143 143 143 147 154 164 165 169 168 173 175 178 181 192 199 203 210
172 164 169 157 152 161 168 156 164 163 161 149 151 142 146 156 151 150 147 149 151 156 158 156 160 163 163 161 167 167 170 164 172 166 173 178 183 187 195 201 203 208 215
173 176 178 161 158 148 165 175 166 157 154 141 147 148 147 154 155 158 153 154 159 158 173 174 173 164 172 172 176 171 170 174 177 177 181 187 194 197 202 208 211 215 221
177 173 177 161 147 163 159 173 169 149 152 140 160 159 155 157 155 165 179 171 168 172 174 180 188 188 176 181 183 184 185 181 189 195 197 199 202 208 210 213 222 221 221
177 169 188 167 163 168 159 169 168 169 156 145 150 164 167 166 170 177 181 180 181 174 173 184 188 191 194 187 184 188 194 198 201 203 205 205 207 211 219 224 228 232 240
177 167 179 180 167 172 163 165 172 179 167 155 133 159 169 189 172 182 189 186 188 183 175 181 183 186 194 199 203 204 205 205 207 211 216 216 217 221 225 228 235 239 243
169 168 179 181 171 155 169 174 167 174 174 166 144 158 178 203 167 175 183 188 192 192 192 195 200 198 201 204 208 211 213 214 216 216 219 224 226 227 230 234 238 243 247
167 173 168 171 169 174 178 188 182 169 164 169 160 158 182 194 195 168 173 175 183 195 199 203 210 214 208 213 216 220 223 224 224 226 227 230 234 235 238 242 243 246 251
123 121 132 140 143 162 131 159 174 164 175 155 147 159 159 166 169 162 166 181 187 196 203 212 219 223 229 235 240 239 241 239 238 241 244 239 245 249 250 249 250 256 258
86 84 77 71 72 85 94 84 64 63 112 123 116 104 98 97 84 76 72 73 184 194 209 219 230 242 254 245 243 246 248 246 246 249 247 251 256 253 252 254 256 258 260
Height
665 670 675 680 686 691 696 701 705 708 712 715 718 721 723 725 728 730 731 732 735 737 738 740 741 742 743 745 746 748 751 752 756 763 766 769 771 773 774 777 780 784 788
666 671 676 682 688 693 697 701 705 708 712 715 717 720 722 724 726 729 730 731 733 735 736 738 740 741 741 743 746 747 749 752 754 761 767 770 772 774 775 778 781 785 790
667 673 679 684 689 694 698 702 706 709 712 715 717 719 721 722 725 726 728 729 731 733 735 736 738 740 741 742 744 746 749 752 756 761 767 771 773 776 777 781 784 789 794
670 675 681 686 690 695 699 703 706 709 712 715 717 718 720 722 724 724 726 728 730 731 732 736 737 739 740 742 743 745 748 752 757 763 768 771 775 779 781 784 790 795 800
673 678 683 688 692 696 700 703 707 709 712 714 716 718 720 722 723 723 725 727 729 729 731 733 736 737 739 741 743 746 748 752 758 763 767 773 777 780 784 789 793 799 806
676 681 686 689 693 697 701 704 707 710 712 714 716 718 721 722 723 724 724 726 728 729 730 733 735 736 738 741 743 746 748 752 758 764 769 773 778 782 787 790 795 803 814
676 681 686 690 694 697 701 704 707 710 713 715 717 719 721 723 723 724 724 725 726 728 730 732 734 735 738 741 743 747 750 755 758 762 767 773 778 783 786 793 798 801 808
676 681 686 689 693 698 701 704 708 711 714 716 718 720 722 723 723 724 725 725 727 728 730 732 733 736 738 741 745 750 754 758 762 766 770 774 779 785 791 794 800 805 814
675 681 684 689 693 697 701 704 708 711 714 716 718 720 722 724 724 725 726 726 727 729 731 732 734 737 738 742 746 750 755 759 763 768 773 778 782 787 791 797 803 808 817
675 679 684 689 693 697 700 704 708 711 713 716 719 721 723 725 726 726 727 727 728 730 732 733 736 737 741 744 747 751 756 760 765 770 775 781 786 790 794 799 803 810 816
674 679 685 690 693 696 700 705 708 710 713 716 719 722 724 726 727 727 728 728 729 731 733 734 737 740 743 747 751 755 759 763 769 774 778 783 789 793 798 802 805 810 814
674 679 685 691 693 697 701 705 708 710 713 716 719 723 725 727 727 728 729 729 730 732 734 735 738 742 745 750 754 757 762 766 771 776 781 786 791 795 799 803 807 810 812
675 680 686 691 693 697 700 704 707 709 712 714 716 721 726 727 728 729 730 731 732 734 735 737 740 744 748 752 756 760 764 769 773 777 782 788 792 797 801 806 811 813 814
675 681 687 689 693 696 699 703 705 709 712 712 714 717 725 728 729 730 732 733 734 736 738 741 744 747 751 753 757 764 768 771 774 778 783 789 794 799 804 808 811 813 813
676 681 687 689 694 696 700 703 706 710 712 711 714 716 721 725 727 729 732 734 736 738 741 745 748 750 753 758 761 765 769 772 776 781 785 790 794 799 803 806 808 811 812
676 681 683 687 692 695 700 705 708 710 712 714 716 718 720 722 726 729 732 734 737 741 745 747 751 754 757 760 763 766 770 774 777 782 787 791 794 798 801 805 807 809 810
674 678 683 686 689 694 698 702 707 713 714 716 717 720 722 724 727 730 733 737 740 744 747 750 753 757 760 762 765 768 772 775 778 781 785 789 792 795 800 802 804 805 807
674 679 682 683 687 692 696 703 706 709 712 717 720 722 724 726 730 732 735 739 743 746 748 750 753 756 760 763 765 768 771 774 777 780 783 786 790 794 797 797 800 801 802
673 678 678 681 685 690 695 697 701 706 710 715 720 722 725 728 732 735 738 741 744 746 749 752 752 755 758 762 764 766 768 772 775 778 782 785 788 791 792 793 795 797 798
671 676 677 681 687 690 694 696 698 702 708 711 719 722 725 729 733 736 739 741 742 746 749 752 754 755 757 760 763 765 768 771 774 777 779 782 785 785 786 789 790 790 793
669 677 679 680 685 688 691 695 698 701 703 708 714 720 723 727 732 735 737 739 739 741 745 749 752 755 757 760 763 766 768 770 772 774 775 777 779 781 783 784 785 786 786
667 674 679 678 682 686 689 694 698 701 702 706 711 719 723 725 727 731 734 735 737 738 741 744 746 750 753 756 759 762 764 766 768 770 771 772 774 776 777 779 779 779 779
668 672 676 678 681 686 691 692 696 699 702 705 711 719 724 724 724 728 731 733 735 737 740 743 745 747 749 752 754 756 758 760 763 765 767 768 768 770 771 772 772 772 771
669 672 675 679 682 686 689 692 695 699 701 705 709 716 722 724 723 725 727 731 734 736 738 740 742 744 746 749 751 753 754 756 758 759 762 762 762 763 764 763 763 763 763
674 676 677 681 686 688 691 692 696 699 704 705 710 713 718 721 723 726 727 730 731 734 736 738 740 742 745 747 748 749 750 752 754 755 756 757 757 757 756 756 756 756 755
680 683 686 689 691 694 697 699 703 704 706 710 714 717 720 722 726 728 730 732 732 734 736 737 739 740 741 740 742 743 745 746 748 750 752 752 750 749 749 749 749 748 747